Weather History for Waco, TX

Change the Weather History Date:

Thursday, April 4, 2013

  Actual Average Record
Temperature  
Mean Temperature 46 °F 63 °F  
Max Temperature 50 °F 75 °F 92 °F (1902)
Min Temperature 42 °F 51 °F 31 °F (1975)
Degree Days  
Heating Degree Days 19 4  
Month to date heating degree days 32 18  
Since 1 July heating degree days 1880 2076  
Cooling Degree Days 0 2  
Month to date cooling degree days 2 8  
Year to date cooling degree days 45 51  
Moisture  
Dew Point 42 °F    
Average Humidity 80    
Maximum Humidity 93    
Minimum Humidity 66    
Precipitation  
Precipitation 0.02 in 0.07 in 2.94 in (1922)
Month to date precipitation 0.39 0.29  
Year to date precipitation 9.37 8.19  
Snow  
Snow 0.00 in 0.00 in 0.00 in ()
Month to date snowfall 0.0 0.0  
Since 1 July snowfall T 1.0  
Snow Depth 0.00 in    
Sea Level Pressure  
Sea Level Pressure 30.16 in    
Wind  
Wind Speed 10 mph (NNW)    
Max Wind Speed 20 mph    
Max Gust Speed 24 mph    
Visibility 7 miles    
Events Rain    
T = Trace of Precipitation, MM = Missing Value Source: NWS Daily Summary

Daily Weather History Graph

Daily Weather History Graph

Search for Another Location

Airport:

Trip Planner

Search our weather history database for the weather conditions in past years. The results will help you decide how hot, cold, wet, or windy it might be!

Date:

Astronomy

Apr. 04, 2013 Rise Set
Actual Time 7:13 AM CDT 7:50 PM CDT
Civil Twilight 6:48 AM CDT 8:15 PM CDT
Nautical Twilight 6:19 AM CDT 8:44 PM CDT
Astronomical Twilight 5:50 AM CDT 9:13 PM CDT
Moon 3:20 AM CDT (4/4) 2:29 PM CDT (4/4)
Length of Visible Light 13h 26m
Length of Day
12h 37m
Waning Crescent, 33% of the Moon is Illuminated
Apr 4
Waning Crescent
Apr 10
New
Apr 18
First Quarter
Apr 25
Full
May 2
Last Quarter

Hourly Weather History & Observations

Time (CDT) Temp. Windchill Dew Point Humidity Pressure Visibility Wind Dir Wind Speed Gust Speed Precip Events Conditions
12:00 AM 46.4 °F 41.5 °F 44.6 °F 93% 30.14 in 2.5 mi North 10.4 mph - 0.00 in Rain Light Rain
12:11 AM 46.4 °F 41.5 °F 44.6 °F 93% 30.14 in 3.0 mi North 10.4 mph - 0.00 in   Overcast
12:27 AM 46.4 °F 41.5 °F 44.6 °F 93% 30.14 in 3.0 mi NNW 10.4 mph - 0.00 in   Overcast
12:51 AM 46.9 °F - 45.0 °F 93% 30.14 in 3.0 mi NNW 12.7 mph - 0.00 in   Overcast
1:32 AM 46.4 °F 41.1 °F 44.6 °F 93% 30.13 in 5.0 mi North 11.5 mph - N/A   Overcast
1:40 AM 46.4 °F 41.1 °F 44.6 °F 93% 30.14 in 5.0 mi NNW 11.5 mph - N/A   Overcast
1:49 AM 46.4 °F 41.5 °F 44.6 °F 93% 30.14 in 5.0 mi NNW 10.4 mph - N/A   Overcast
1:51 AM 46.9 °F - 45.0 °F 93% 30.14 in 5.0 mi NNW 9.2 mph - N/A   Overcast
2:51 AM 46.0 °F 41.4 °F 44.1 °F 93% 30.13 in 4.0 mi North 9.2 mph - N/A   Overcast
3:08 AM 46.4 °F 41.5 °F 42.8 °F 87% 30.12 in 7.0 mi NNW 10.4 mph - N/A   Overcast
3:16 AM 46.4 °F 41.1 °F 42.8 °F 87% 30.12 in 7.0 mi NNW 11.5 mph - N/A   Overcast
3:51 AM 46.4 °F 42.4 °F 42.8 °F 87% 30.12 in 4.0 mi NNW 8.1 mph - N/A   Overcast
4:05 AM 46.4 °F 41.5 °F 42.8 °F 87% 30.12 in 2.5 mi NNW 10.4 mph - 0.01 in Rain Light Rain
4:17 AM 46.4 °F 41.1 °F 44.6 °F 93% 30.11 in 3.0 mi NNW 11.5 mph - 0.01 in Rain Light Rain
4:27 AM 44.6 °F 38.8 °F 42.8 °F 93% 30.11 in 2.5 mi NNW 11.5 mph - 0.01 in Rain Light Rain
4:31 AM 44.6 °F 38.8 °F 42.8 °F 93% 30.11 in 3.0 mi NNW 11.5 mph - 0.01 in Rain Light Rain
4:51 AM 45.0 °F 38.2 °F 42.1 °F 90% 30.12 in 5.0 mi NNW 15.0 mph 19.6 mph 0.01 in   Overcast
5:06 AM 44.6 °F 38.8 °F 42.8 °F 93% 30.11 in 9.0 mi NNW 11.5 mph - 0.01 in   Overcast
5:17 AM 44.6 °F 39.2 °F 42.8 °F 93% 30.11 in 8.0 mi NNW 10.4 mph - 0.01 in   Overcast
5:51 AM 45.0 °F 38.5 °F 41.0 °F 86% 30.12 in 10.0 mi NNW 13.8 mph - 0.01 in   Overcast
6:51 AM 44.6 °F 38.1 °F 39.2 °F 81% 30.14 in 10.0 mi NNW 13.8 mph - N/A   Overcast
7:51 AM 44.6 °F 40.2 °F 41.0 °F 87% 30.16 in 9.0 mi NNW 8.1 mph - N/A   Overcast
8:51 AM 44.1 °F 39.5 °F 39.9 °F 85% 30.17 in 10.0 mi North 8.1 mph - N/A   Overcast
9:40 AM 44.6 °F 39.7 °F 39.2 °F 81% 30.19 in 10.0 mi NW 9.2 mph - N/A   Overcast
9:51 AM 45.0 °F 39.7 °F 39.0 °F 80% 30.19 in 10.0 mi NW 10.4 mph - N/A   Overcast
10:51 AM 45.0 °F 38.9 °F 37.9 °F 76% 30.21 in 10.0 mi NW 12.7 mph 21.9 mph N/A   Overcast
11:51 AM 46.0 °F 40.2 °F 39.0 °F 76% 30.23 in 10.0 mi NW 12.7 mph - N/A   Overcast
12:51 PM 46.9 °F - 39.0 °F 74% 30.22 in 10.0 mi NNW 12.7 mph - N/A   Overcast
1:51 PM 46.9 °F - 39.0 °F 74% 30.21 in 10.0 mi NW 15.0 mph 23.0 mph N/A   Overcast
2:51 PM 48.0 °F - 39.0 °F 71% 30.18 in 10.0 mi NW 13.8 mph - N/A   Overcast
3:51 PM 48.9 °F - 39.9 °F 71% 30.16 in 10.0 mi NNW 13.8 mph 20.7 mph N/A   Overcast
4:51 PM 50.0 °F - 39.9 °F 68% 30.15 in 10.0 mi North 12.7 mph - N/A   Overcast
5:51 PM 48.9 °F - 39.9 °F 71% 30.15 in 10.0 mi NW 10.4 mph - N/A   Overcast
6:51 PM 48.9 °F - 39.9 °F 71% 30.17 in 10.0 mi NW 11.5 mph - N/A   Overcast
7:51 PM 48.9 °F - 39.9 °F 71% 30.16 in 10.0 mi NNW 8.1 mph - N/A   Overcast
8:51 PM 48.0 °F - 39.9 °F 74% 30.17 in 10.0 mi NNW 5.8 mph - N/A   Overcast
9:51 PM 48.0 °F - 39.0 °F 71% 30.20 in 10.0 mi North 10.4 mph - N/A   Overcast
10:51 PM 48.0 °F - 39.9 °F 74% 30.21 in 10.0 mi North 5.8 mph - N/A   Overcast
11:51 PM 46.9 °F - 39.0 °F 74% 30.23 in 10.0 mi NW 5.8 mph - N/A   Overcast